sat.trackr.live / text

‹ back to catalog

STARLINK-37290

NORAD 68546 · 2026-070E

PAYLOAD ACTIVE UNKNOWN

§ Identity

Operator
Country
US
Launch date
2026-04-02
Launch site
AFETR
Launch vehicle
Mass (kg)
RCS (m²)

Purposes: comms

External: N2YO · Heavens-Above · Gunter

§ Orbital elements

Epoch: 2026-05-24T21:08:01.168512Z

Period
93.85 min
Inclination
53.1617°
Eccentricity
0.0001154
Mean motion
15.34398959 rev/d
Perigee alt
461.9 km
Apogee alt
463.5 km
Semi-major
6,840.8 km
B*
5.9525e-4
RAAN
8.4127°
Arg perigee
77.5977°
Mean anomaly
282.5154°
Rev number
822

§ Raw data

STARLINK-372901 68546U 26070E   26144.88056908  .00019788  00000+0  59525-3 0  99962 68546  53.1617   8.4127 0001154  77.5977 282.5154 15.34398959  8224

JSON: /api/v1/satellites/68546 · /tle

For live sub-satellite position, see the globe view (requires WebGL).

§ Visibility from observer

Set your observer location to see the next 7 days of passes ≥ 10°. The values pass through the URL so the page stays shareable.

No JS? Fill the form by hand. The geolocation button needs JavaScript.